Location: Little Baddow
(51.7333°N, 0.5667°E)
Time: 09:52:43
(UTC+00:00)

SJ 16-02 - Pass Details

Date: 08 November 2025
Orbit: 585 x 594 km, 75.0° (Epoch: 12 December)

Event Time Altitude Azimuth Distance (km) Brightness Sun altitude
Exits shadow 04:25:31 - 355° (N) 2,228 4.2 -24.7°
Reaches altitude 10° 04:26:29 10° 3° (N) 1,939 4.0 -24.6°
Maximum altitude 04:29:36 19° 49° (NE) 1,434 3.8 -24.1°
Drops below altitude 10° 04:32:41 10° 96° (E) 1,925 5.0 -23.6°
Sets 04:35:27 0° 114° (ESE) 2,820 5.8 -23.2°
